Retour au catalogue

FENGYUN 1C DEB *

ActifPO
NORAD 46995·DEBRIS·🇨🇳 China

Lancé May 10, 1999 depuis Taiyuan Satellite Launch Center

Loading…

Prochains Passages (prochaines 24 heures)

TLE

PériméSource: Space-Track

Époque: Sep 1, 2026, 15:24 UTC

1 46995U 99025EZV 26244.64200183  .00001238  00000-0  93763-3 0  9995
2 46995  98.5899 310.6056 0186553 117.5876 244.4367 13.87724921641136

Suivez FENGYUN 1C DEB * en temps réel avec AllMySat

Download on the App Store